User: anonymous   Login
Location: *
(0.1100°N, 5.5000°E)
Time: 01:01:00
(UTC+00:00)
Language:

BREEZE-M R/B - Orbit

View from above orbital plane
View from above orbital plane
View from above satellite
View from above satellite

Ground track
Ground track

The orbit data is extracted from the following two-line orbital elements,

1 38746U 12044C   23089.03360940  .00021268  00000-0  12268-2 0  9996
2 38746  49.6678 271.3659 2313060  21.9308 346.6090 10.69882534404957
Epoch (UTC): 30 March 2023 00:48:23
Eccentricity: 0.2313060
inclination: 49.6678°
perigee height: 309 km
apogee height: 4334 km
right ascension of ascending node: 271.3659°
argument of perigee: 21.9308°
revolutions per day: 10.69882534
mean anomaly at epoch: 346.6090°
orbit number at epoch: 40495

The dashed part of the orbit path shows where the satellite is in the earth's shadow,  

DLR